When you browse on this site, cookies collect data to enhance your experience and personalize the content and advertising you see.
Visit our Privacy Policy to learn more. By continuing to use the site, you agree to this use of cookies and data.
  • în România
  • Lista ţărilor
  • Pe 7 zile
  • Temperatura apei
  • Hartă satelitară
  • Meteo pe hartă
  • Widget-uri
  • user-avatar
    Intrare

    Meteo pe oră la Acerno

    Astăzi, 24 Aprilie, Miercuri

    Timp Temperatura Precipitaţii Vânt Presiune Umiditate
    00:00 +9°C° 0 mm 1 m/s 671 mmHg 78%
    01:00 +9°C° 0 mm 1 m/s 672 mmHg 77%
    02:00 +9°C° 0 mm 1 m/s 672 mmHg 76%
    03:00 +9°C° 0 mm 1 m/s 672 mmHg 75%
    04:00 +9°C° 0 mm 1 m/s 672 mmHg 74%
    05:00 +10°C° 0 mm 1 m/s 673 mmHg 72%
    06:00 +11°C° 0 mm 1 m/s 673 mmHg 71%
    07:00 +13°C° 0 mm 1 m/s 674 mmHg 65%
    08:00 +15°C° 0 mm 1 m/s 675 mmHg 56%
    09:00 +18°C° 0 mm 1 m/s 675 mmHg 48%
    10:00 +20°C° 0 mm 1 m/s 676 mmHg 39%
    11:00 +20°C° 0 mm 2 m/s 676 mmHg 36%
    12:00 +21°C° 0 mm 2 m/s 677 mmHg 34%
    13:00 +21°C° 0 mm 2 m/s 677 mmHg 31%
    14:00 +21°C° 0 mm 2 m/s 677 mmHg 32%
    15:00 +21°C° 0 mm 2 m/s 677 mmHg 33%
    16:00 +21°C° 0 mm 2 m/s 677 mmHg 34%
    17:00 +19°C° 0 mm 1 m/s 676 mmHg 37%
    18:00 +16°C° 0 mm 1 m/s 675 mmHg 40%
    19:00 +13°C° 0 mm 0 m/s 675 mmHg 43%
    20:00 +13°C° 0 mm 1 m/s 675 mmHg 43%
    21:00 +12°C° 0 mm 1 m/s 676 mmHg 43%
    22:00 +12°C° 0 mm 1 m/s 676 mmHg 42%
    23:00 +12°C° 0 mm 1 m/s 676 mmHg 41%

    Mâine, 25 Aprilie, Joi

    Timp Temperatura Precipitaţii Vânt Presiune Umiditate
    00:00 +11°C° 0 mm 1 m/s 676 mmHg 40%
    01:00 +11°C° 0 mm 1 m/s 676 mmHg 38%
    02:00 +11°C° 0 mm 1 m/s 676 mmHg 37%
    03:00 +11°C° 0 mm 1 m/s 676 mmHg 35%
    04:00 +12°C° 0 mm 1 m/s 676 mmHg 34%
    05:00 +13°C° 0 mm 1 m/s 676 mmHg 38%
    06:00 +14°C° 0 mm 1 m/s 676 mmHg 42%
    07:00 +15°C° 0 mm 1 m/s 677 mmHg 46%
    08:00 +18°C° 0 mm 1 m/s 678 mmHg 42%
    09:00 +21°C° 0 mm 1 m/s 678 mmHg 37%
    10:00 +23°C° 0 mm 1 m/s 679 mmHg 32%
    11:00 +24°C° 0 mm 1 m/s 679 mmHg 33%
    12:00 +24°C° 0 mm 1 m/s 679 mmHg 33%
    13:00 +25°C° 0 mm 2 m/s 680 mmHg 34%
    14:00 +25°C° 0 mm 2 m/s 679 mmHg 36%
    15:00 +24°C° 0 mm 1 m/s 679 mmHg 38%
    16:00 +23°C° 0 mm 1 m/s 679 mmHg 41%
    17:00 +21°C° 0 mm 1 m/s 678 mmHg 48%
    18:00 +19°C° 0 mm 1 m/s 677 mmHg 56%
    19:00 +16°C° 0 mm 1 m/s 677 mmHg 63%
    20:00 +15°C° 0 mm 1 m/s 677 mmHg 66%
    21:00 +14°C° 0 mm 1 m/s 677 mmHg 70%
    22:00 +13°C° 0 mm 1 m/s 677 mmHg 73%
    23:00 +13°C° 0 mm 1 m/s 677 mmHg 72%

    Poimâine, 26 Aprilie, Vineri

    Timp Temperatura Precipitaţii Vânt Presiune Umiditate
    00:00 +13°C° 0 mm 1 m/s 676 mmHg 71%
    01:00 +12°C° 0 mm 1 m/s 676 mmHg 70%
    02:00 +12°C° 0 mm 1 m/s 676 mmHg 69%
    03:00 +12°C° 0 mm 1 m/s 676 mmHg 68%
    04:00 +11°C° 0 mm 1 m/s 675 mmHg 67%
    05:00 +13°C° 0 mm 1 m/s 676 mmHg 66%
    06:00 +14°C° 0 mm 1 m/s 676 mmHg 64%
    07:00 +15°C° 0 mm 1 m/s 676 mmHg 62%
    08:00 +16°C° 0 mm 1 m/s 677 mmHg 57%
    09:00 +18°C° 0 mm 2 m/s 677 mmHg 52%
    10:00 +20°C° 0 mm 2 m/s 678 mmHg 46%
    11:00 +20°C° 0 mm 3 m/s 678 mmHg 46%
    12:00 +20°C° 0 mm 3 m/s 677 mmHg 45%
    13:00 +21°C° 0 mm 3 m/s 677 mmHg 45%
    14:00 +20°C° 0 mm 3 m/s 677 mmHg 48%
    15:00 +19°C° 0 mm 3 m/s 676 mmHg 52%
    16:00 +18°C° 0 mm 3 m/s 676 mmHg 55%
    17:00 +16°C° 0 mm 3 m/s 675 mmHg 62%
    18:00 +13°C° 0 mm 3 m/s 675 mmHg 69%
    19:00 +12°C° 0 mm 2 m/s 674 mmHg 76%
    20:00 +12°C° 0 mm 2 m/s 674 mmHg 79%
    21:00 +10°C° 0 mm 2 m/s 674 mmHg 82%
    22:00 +9°C° 0 mm 2 m/s 675 mmHg 85%
    23:00 +9°C° 0 mm 2 m/s 675 mmHg 82%

    27 Aprilie, Sâmbătă

    Timp Temperatura Precipitaţii Vânt Presiune Umiditate
    00:00 +8°C° 0 mm 2 m/s 675 mmHg 79%
    01:00 +8°C° 0 mm 2 m/s 674 mmHg 77%
    02:00 +7°C° 0 mm 2 m/s 674 mmHg 76%
    03:00 +7°C° 0 mm 2 m/s 674 mmHg 76%
    04:00 +6°C° 0 mm 2 m/s 674 mmHg 75%
    05:00 +7°C° 0 mm 2 m/s 674 mmHg 74%
    06:00 +7°C° 0 mm 2 m/s 675 mmHg 73%
    07:00 +8°C° 0 mm 2 m/s 675 mmHg 72%
    08:00 +9°C° 0 mm 2 m/s 675 mmHg 66%
    09:00 +11°C° 0 mm 3 m/s 676 mmHg 59%
    10:00 +12°C° 0 mm 3 m/s 676 mmHg 53%
    11:00 +13°C° 0 mm 3 m/s 676 mmHg 52%
    12:00 +13°C° 0 mm 4 m/s 676 mmHg 52%
    13:00 +14°C° 0 mm 4 m/s 676 mmHg 52%
    14:00 +13°C° 0 mm 4 m/s 676 mmHg 55%
    15:00 +13°C° 0 mm 4 m/s 676 mmHg 57%
    16:00 +12°C° 0 mm 4 m/s 675 mmHg 60%
    17:00 +10°C° 0 mm 3 m/s 675 mmHg 68%
    18:00 +9°C° 0 mm 3 m/s 675 mmHg 77%
    19:00 +7°C° 0 mm 3 m/s 674 mmHg 86%
    20:00 +7°C° 0 mm 3 m/s 674 mmHg 87%
    21:00 +7°C° 0 mm 3 m/s 674 mmHg 88%
    22:00 +7°C° 0 mm 3 m/s 675 mmHg 89%
    23:00 +5°C° 0 mm 3 m/s 674 mmHg 89%

    28 Aprilie, Duminică

    Timp Temperatura Precipitaţii Vânt Presiune Umiditate
    00:00 +5°C° 0 mm 3 m/s 674 mmHg 89%
    01:00 +4°C° 0 mm 3 m/s 674 mmHg 88%
    02:00 +4°C° 0 mm 3 m/s 673 mmHg 88%
    03:00 +4°C° 0 mm 3 m/s 673 mmHg 89%
    04:00 +4°C° 0 mm 3 m/s 673 mmHg 89%
    05:00 +5°C° 0.1 mm 3 m/s 672 mmHg 88%
    06:00 +5°C° 0.1 mm 3 m/s 672 mmHg 87%
    07:00 +6°C° 0.1 mm 4 m/s 672 mmHg 86%
    08:00 +7°C° 0.1 mm 4 m/s 672 mmHg 82%
    09:00 +7°C° 0.1 mm 4 m/s 672 mmHg 78%
    10:00 +7°C° 0.1 mm 5 m/s 672 mmHg 74%
    11:00 +7°C° 0.1 mm 5 m/s 672 mmHg 74%
    12:00 +7°C° 0.1 mm 5 m/s 672 mmHg 75%
    13:00 +6°C° 0.1 mm 5 m/s 671 mmHg 75%
    14:00 +7°C° 0.1 mm 6 m/s 671 mmHg 72%
    15:00 +7°C° 0.1 mm 6 m/s 671 mmHg 70%
    16:00 +7°C° 0.1 mm 6 m/s 671 mmHg 67%
    17:00 +5°C° 0 mm 6 m/s 670 mmHg 70%
    18:00 +6°C° 0 mm 5 m/s 670 mmHg 72%
    19:00 +5°C° 0 mm 4 m/s 670 mmHg 75%
    20:00 +5°C° 0.1 mm 4 m/s 670 mmHg 78%
    21:00 +4°C° 0.1 mm 4 m/s 670 mmHg 81%
    22:00 +4°C° 0.1 mm 3 m/s 670 mmHg 85%
    23:00 +4°C° 0.2 mm 3 m/s 670 mmHg 86%

    29 Aprilie, Luni

    Timp Temperatura Precipitaţii Vânt Presiune Umiditate
    00:00 +4°C° 0.2 mm 3 m/s 670 mmHg 88%
    01:00 +4°C° 0.2 mm 3 m/s 669 mmHg 90%
    02:00 +4°C° 0.2 mm 3 m/s 669 mmHg 89%
    03:00 +4°C° 0.2 mm 3 m/s 669 mmHg 88%
    04:00 +3°C° 0.2 mm 3 m/s 669 mmHg 87%
    05:00 +4°C° 0.2 mm 3 m/s 669 mmHg 87%
    06:00 +4°C° 0.2 mm 3 m/s 669 mmHg 87%
    07:00 +5°C° 0.2 mm 3 m/s 669 mmHg 87%
    08:00 +5°C° 0.6 mm 3 m/s 669 mmHg 85%
    09:00 +7°C° 0.6 mm 2 m/s 670 mmHg 83%
    10:00 +7°C° 0.6 mm 2 m/s 670 mmHg 80%
    11:00 +8°C° 0.4 mm 2 m/s 670 mmHg 77%
    12:00 +9°C° 0.4 mm 2 m/s 670 mmHg 73%
    13:00 +10°C° 0.4 mm 2 m/s 671 mmHg 69%
    14:00 +10°C° 0.6 mm 2 m/s 671 mmHg 70%
    15:00 +10°C° 0.6 mm 2 m/s 671 mmHg 72%
    16:00 +9°C° 0.6 mm 2 m/s 671 mmHg 73%
    17:00 +9°C° 0.6 mm 1 m/s 671 mmHg 77%
    18:00 +9°C° 0.6 mm 1 m/s 671 mmHg 81%
    19:00 +8°C° 0.6 mm 1 m/s 671 mmHg 86%
    20:00 +7°C° 0.1 mm 1 m/s 671 mmHg 87%
    21:00 +6°C° 0.1 mm 1 m/s 671 mmHg 88%
    22:00 +6°C° 0.1 mm 1 m/s 672 mmHg 89%
    23:00 +5°C° 0 mm 1 m/s 671 mmHg 89%
    Arată mai mult